| time (UTC) | temp F | wind direction | speed knots | gust knots | rain 1hr in | rain 24hr in | rain mn in | humidity % | barometer mb |
| 20260504110345 | 61 | 319 | 1.7 | 2.6 | 0.00 | 0.00 | 0.02 | 52 | 1013.5 |
| 20260504100344 | 60 | 219 | 2.6 | 2.6 | 0.00 | 0.00 | 0.02 | 56 | 1013.9 |
| 20260504081845 | 63 | 229 | 2.6 | 6.1 | 0.00 | 0.00 | 0.00 | 40 | 1013.5 |
| 20260504081346 | 62 | 7 | 5.2 | 7.0 | 0.00 | 0.00 | 0.00 | 41 | 1013.5 |
| 20260504080844 | 62 | 356 | 6.1 | 11.3 | 0.00 | 0.00 | 0.00 | 41 | 1013.5 |
| 20260504080344 | 62 | 158 | 1.7 | 1.7 | 0.00 | 0.00 | 0.00 | 43 | 1013.5 |
| 20260504070344 | 62 | 314 | 1.7 | 1.7 | 0.00 | 0.00 | 0.00 | 42 | 1013.5 |
| 20260504050344 | 56 | 320 | 1.7 | 2.6 | 0.00 | 0.00 | 0.00 | 51 | 1013.5 |
| 20260504045846 | 58 | 274 | 2.6 | 4.3 | 0.00 | 0.00 | 0.00 | 54 | 1013.9 |
| 20260504045344 | 57 | 209 | 2.6 | 2.6 | 0.00 | 0.00 | 0.00 | 54 | 1013.5 |
| 20260504044844 | 57 | 260 | 1.7 | 2.6 | 0.00 | 0.00 | 0.00 | 56 | 1014.2 |
| 20260504044344 | 57 | 287 | 2.6 | 2.6 | 0.00 | 0.00 | 0.00 | 59 | 1013.9 |
| 20260504043844 | 56 | 280 | 1.7 | 1.7 | 0.00 | 0.00 | 0.00 | 60 | 1013.9 |
| 20260504043344 | 55 | 269 | 0.9 | 0.9 | 0.00 | 0.00 | 0.00 | 62 | 1013.5 |
| 20260504042845 | 55 | 234 | 2.6 | 2.6 | 0.00 | 0.00 | 0.00 | 63 | 1013.5 |
| 20260504042344 | 54 | 236 | 0.9 | 0.9 | 0.00 | 0.00 | 0.00 | 63 | 1013.9 |
| 20260504041429 | 54 | 333 | 2.6 | 4.3 | 0.00 | 0.00 | 0.00 | 63 | 1013.9 |
| 20260504040845 | 54 | 188 | 0.9 | 1.7 | 0.00 | 0.00 | 0.00 | 63 | 1013.5 |
| 20260504040344 | 54 | 182 | 3.5 | 7.8 | 0.00 | 0.00 | 0.00 | 62 | 1013.5 |
| 20260504035845 | 54 | 252 | 2.6 | 5.2 | 0.00 | 0.00 | 0.00 | 60 | 1013.5 |
| 20260504035345 | 54 | 260 | 0.9 | 0.9 | 0.00 | 0.00 | 0.00 | 59 | 1013.5 |
| 20260504034844 | 54 | 208 | 4.3 | 7.0 | 0.00 | 0.00 | 0.00 | 59 | 1013.5 |
| 20260504034344 | 55 | 113 | 3.5 | 6.1 | 0.00 | 0.00 | 0.00 | 58 | 1013.5 |
| 20260504033844 | 54 | 261 | 0.9 | 0.9 | 0.00 | 0.00 | 0.00 | 58 | 1013.2 |
| 20260504033345 | 54 | 274 | 0.9 | 0.9 | 0.00 | 0.00 | 0.00 | 57 | 1013.2 |
| 20260504032845 | 54 | 256 | 1.7 | 4.3 | 0.00 | 0.00 | 0.00 | 58 | 1013.2 |
| 20260504032345 | 55 | 280 | 1.7 | 1.7 | 0.00 | 0.00 | 0.00 | 56 | 1012.9 |
| 20260504031845 | 55 | 243 | 0.9 | 0.9 | 0.00 | 0.00 | 0.00 | 54 | 1012.9 |
| 20260504031346 | 55 | 275 | 0.9 | 0.9 | 0.00 | 0.00 | 0.00 | 50 | 1012.9 |
| 20260504030844 | 54 | 238 | 0.9 | 0.9 | 0.00 | 0.00 | 0.00 | 49 | 1013.2 |
| 20260504030345 | 53 | 269 | 1.7 | 1.7 | 0.00 | 0.00 | 0.00 | 49 | 1012.9 |
| 20260504025844 | 53 | 281 | 0.0 | 0.0 | 0.00 | 0.00 | 0.00 | 50 | 1012.9 |
| 20260504025344 | 53 | 225 | 3.5 | 4.3 | 0.00 | 0.00 | 0.00 | 50 | 1012.9 |
| 20260504024844 | 54 | 274 | 0.9 | 0.9 | 0.00 | 0.00 | 0.00 | 51 | 1013.2 |
| 20260504024344 | 54 | 217 | 0.9 | 0.9 | 0.00 | 0.00 | 0.00 | 51 | 1012.9 |
| 20260504023846 | 54 | 211 | 0.9 | 0.9 | 0.00 | 0.00 | 0.00 | 51 | 1013.2 |
| 20260504023344 | 54 | 212 | 1.7 | 2.6 | 0.00 | 0.00 | 0.00 | 51 | 1012.9 |
| 20260504022844 | 54 | 247 | 0.9 | 0.9 | 0.00 | 0.00 | 0.00 | 52 | 1013.2 |
| 20260504022344 | 54 | 285 | 1.7 | 1.7 | 0.00 | 0.00 | 0.00 | 51 | 1012.9 |
| 20260504021844 | 54 | 265 | 0.0 | 0.0 | 0.00 | 0.00 | 0.00 | 52 | 1013.2 |
| 20260504021345 | 54 | 299 | 0.0 | 0.0 | 0.00 | 0.00 | 0.00 | 52 | 1013.2 |
| 20260504020401 | 54 | 237 | 1.7 | 2.6 | 0.00 | 0.00 | 0.00 | 52 | 1012.9 |
| 20260504015844 | 54 | 226 | 0.9 | 0.9 | 0.00 | 0.00 | 0.00 | 52 | 1012.9 |
| 20260504015344 | 54 | 263 | 0.0 | 0.0 | 0.00 | 0.00 | 0.00 | 53 | 1012.9 |
| 20260504014845 | 54 | 235 | 0.0 | 0.0 | 0.00 | 0.00 | 0.00 | 56 | 1012.9 |
| 20260504014344 | 54 | 228 | 0.9 | 0.9 | 0.00 | 0.00 | 0.00 | 56 | 1012.9 |
| 20260504013844 | 54 | 232 | 0.0 | 0.0 | 0.00 | 0.00 | 0.00 | 57 | 1012.9 |
| 20260504013344 | 54 | 278 | 0.9 | 0.9 | 0.00 | 0.00 | 0.00 | 57 | 1012.9 |
| 20260504012845 | 54 | 234 | 0.0 | 0.0 | 0.00 | 0.00 | 0.00 | 58 | 1012.9 |
| 20260504012345 | 54 | 235 | 0.9 | 0.9 | 0.00 | 0.00 | 0.00 | 59 | 1012.9 |
| 20260504011844 | 54 | 219 | 0.9 | 1.7 | 0.00 | 0.00 | 0.00 | 59 | 1012.9 |
| 20260504011344 | 54 | 275 | 0.9 | 1.7 | 0.00 | 0.00 | 0.00 | 60 | 1012.5 |
| 20260504010844 | 54 | 229 | 1.7 | 1.7 | 0.00 | 0.00 | 0.00 | 61 | 1012.9 |
| 20260504010346 | 54 | 168 | 0.9 | 0.9 | 0.00 | 0.00 | 0.00 | 60 | 1012.9 |
| 20260504005844 | 54 | 262 | 0.9 | 0.9 | 0.00 | 0.00 | 0.00 | 60 | 1012.9 |
| 20260504005345 | 54 | 269 | 0.9 | 0.9 | 0.00 | 0.00 | 0.00 | 59 | 1012.9 |
| 20260504004844 | 54 | 246 | 0.9 | 0.9 | 0.00 | 0.00 | 0.00 | 58 | 1012.9 |
| 20260504004344 | 55 | 200 | 2.6 | 6.1 | 0.00 | 0.00 | 0.00 | 57 | 1012.9 |
| 20260504003844 | 55 | 282 | 0.9 | 1.7 | 0.00 | 0.00 | 0.00 | 51 | 1012.9 |
| 20260504003344 | 55 | 207 | 1.7 | 1.7 | 0.00 | 0.00 | 0.00 | 49 | 1012.9 |
| 20260504002845 | 55 | 268 | 0.9 | 0.9 | 0.00 | 0.00 | 0.00 | 49 | 1012.9 |
| 20260504002345 | 55 | 126 | 2.6 | 5.2 | 0.00 | 0.00 | 0.00 | 48 | 1012.5 |
| 20260504001845 | 55 | 212 | 2.6 | 2.6 | 0.00 | 0.00 | 0.00 | 50 | 1012.5 |
| 20260504000912 | 55 | 137 | 0.9 | 1.7 | 0.00 | 0.00 | 0.00 | 52 | 1012.5 |
| 20260503235946 | 54 | 257 | 7.0 | 8.7 | 0.00 | 0.00 | 0.00 | 54 | 1012.5 |
| 20260503235353 | 54 | 257 | 1.7 | 1.7 | 0.00 | 0.00 | 0.00 | 54 | 1012.5 |
| 20260503234849 | 54 | 244 | 1.7 | 2.6 | 0.00 | 0.00 | 0.00 | 53 | 1012.2 |
| 20260503234344 | 54 | 231 | 0.0 | 0.0 | 0.00 | 0.00 | 0.00 | 53 | 1012.5 |
| 20260503233845 | 54 | 312 | 2.6 | 2.6 | 0.00 | 0.00 | 0.00 | 53 | 1012.9 |
| 20260503233344 | 55 | 228 | 4.3 | 5.2 | 0.00 | 0.00 | 0.00 | 52 | 1012.5 |
| 20260503232844 | 55 | 246 | 0.9 | 0.9 | 0.00 | 0.00 | 0.00 | 52 | 1012.9 |
| 20260503232344 | 55 | 275 | 1.7 | 1.7 | 0.00 | 0.00 | 0.00 | 51 | 1012.5 |
| 20260503231844 | 55 | 257 | 1.7 | 1.7 | 0.00 | 0.00 | 0.00 | 50 | 1012.9 |
| 20260503231344 | 55 | 286 | 2.6 | 2.6 | 0.00 | 0.00 | 0.00 | 50 | 1012.9 |
| 20260503230844 | 55 | 247 | 1.7 | 1.7 | 0.00 | 0.00 | 0.00 | 51 | 1012.9 |
| 20260503230344 | 55 | 201 | 1.7 | 1.7 | 0.00 | 0.00 | 0.00 | 51 | 1012.9 |
| 20260503225844 | 56 | 267 | 3.5 | 5.2 | 0.00 | 0.00 | 0.00 | 51 | 1012.9 |
| 20260503225345 | 56 | 262 | 6.1 | 9.6 | 0.00 | 0.00 | 0.00 | 51 | 1013.2 |
| 20260503224844 | 56 | 274 | 6.1 | 7.0 | 0.00 | 0.00 | 0.00 | 51 | 1012.9 |
| 20260503224346 | 56 | 253 | 5.2 | 7.0 | 0.00 | 0.00 | 0.00 | 50 | 1012.9 |
| 20260503223845 | 56 | 265 | 3.5 | 5.2 | 0.00 | 0.00 | 0.00 | 49 | 1012.9 |
| 20260503223344 | 57 | 267 | 1.7 | 2.6 | 0.00 | 0.00 | 0.00 | 50 | 1012.9 |
| 20260503222844 | 57 | 310 | 4.3 | 8.7 | 0.00 | 0.00 | 0.00 | 49 | 1012.9 |
| 20260503222344 | 57 | 323 | 0.9 | 4.3 | 0.00 | 0.00 | 0.00 | 51 | 1012.9 |
| 20260503221844 | 57 | 275 | 4.3 | 5.2 | 0.00 | 0.00 | 0.00 | 51 | 1012.9 |
| 20260503221344 | 57 | 252 | 2.6 | 6.1 | 0.00 | 0.00 | 0.00 | 52 | 1012.9 |
| 20260503220844 | 57 | 166 | 1.7 | 1.7 | 0.00 | 0.00 | 0.00 | 52 | 1012.9 |
| 20260503220345 | 57 | 260 | 0.9 | 0.9 | 0.00 | 0.00 | 0.00 | 54 | 1012.9 |
| 20260503215845 | 57 | 190 | 1.7 | 1.7 | 0.00 | 0.00 | 0.00 | 56 | 1012.5 |
| 20260503215344 | 57 | 211 | 5.2 | 8.7 | 0.00 | 0.00 | 0.00 | 58 | 1012.9 |
| 20260503214845 | 57 | 331 | 2.6 | 2.6 | 0.00 | 0.00 | 0.00 | 57 | 1012.9 |
| 20260503214344 | 57 | 181 | 0.9 | 1.7 | 0.00 | 0.00 | 0.00 | 54 | 1012.9 |
| 20260503213845 | 57 | 245 | 1.7 | 5.2 | 0.00 | 0.00 | 0.00 | 55 | 1012.9 |
| 20260503213345 | 57 | 310 | 6.1 | 7.0 | 0.00 | 0.00 | 0.00 | 54 | 1012.9 |
| 20260503212844 | 57 | 263 | 3.5 | 7.0 | 0.00 | 0.00 | 0.00 | 55 | 1012.9 |
| 20260503212344 | 57 | 321 | 2.6 | 2.6 | 0.00 | 0.00 | 0.00 | 55 | 1012.9 |
| 20260503211844 | 57 | 273 | 2.6 | 2.6 | 0.00 | 0.00 | 0.00 | 55 | 1012.9 |
| 20260503211345 | 57 | 262 | 2.6 | 4.3 | 0.00 | 0.00 | 0.00 | 55 | 1012.9 |
| 20260503210844 | 57 | 3 | 4.3 | 7.8 | 0.00 | 0.00 | 0.00 | 54 | 1012.9 |
| 20260503210344 | 57 | 254 | 6.1 | 8.7 | 0.00 | 0.00 | 0.00 | 54 | 1012.9 |
| 20260503205845 | 57 | 269 | 5.2 | 7.0 | 0.00 | 0.00 | 0.00 | 54 | 1012.9 |
| 20260503205344 | 57 | 302 | 2.6 | 4.3 | 0.00 | 0.00 | 0.00 | 54 | 1012.9 |
| 20260503204845 | 57 | 227 | 2.6 | 4.3 | 0.00 | 0.00 | 0.00 | 53 | 1012.9 |
| 20260503204345 | 57 | 239 | 5.2 | 7.8 | 0.00 | 0.00 | 0.00 | 53 | 1012.9 |
| 20260503203845 | 58 | 328 | 3.5 | 5.2 | 0.00 | 0.00 | 0.00 | 54 | 1012.9 |
| 20260503203344 | 58 | 287 | 4.3 | 7.0 | 0.00 | 0.00 | 0.00 | 52 | 1012.9 |
| 20260503202844 | 58 | 211 | 3.5 | 8.7 | 0.00 | 0.00 | 0.00 | 52 | 1012.9 |
| 20260503202345 | 58 | 209 | 7.8 | 11.3 | 0.00 | 0.00 | 0.00 | 52 | 1012.9 |
| 20260503201848 | 59 | 243 | 4.3 | 8.7 | 0.00 | 0.00 | 0.00 | 52 | 1012.9 |
| 20260503201345 | 59 | 235 | 4.3 | 6.1 | 0.00 | 0.00 | 0.00 | 50 | 1012.9 |
| 20260503200845 | 60 | 244 | 4.3 | 6.1 | 0.00 | 0.00 | 0.00 | 49 | 1012.9 |
| 20260503200344 | 59 | 288 | 6.1 | 7.8 | 0.00 | 0.00 | 0.00 | 50 | 1012.5 |
| 20260503195844 | 60 | 234 | 4.3 | 7.8 | 0.00 | 0.00 | 0.00 | 50 | 1012.9 |
| 20260503195344 | 60 | 212 | 5.2 | 8.7 | 0.00 | 0.00 | 0.00 | 50 | 1012.5 |
| 20260503194845 | 60 | 262 | 4.3 | 7.8 | 0.00 | 0.00 | 0.00 | 51 | 1012.9 |
| 20260503194344 | 60 | 234 | 4.3 | 6.1 | 0.00 | 0.00 | 0.00 | 52 | 1012.5 |
| 20260503193844 | 61 | 216 | 1.7 | 4.3 | 0.00 | 0.00 | 0.00 | 52 | 1012.5 |
| 20260503193344 | 61 | 272 | 1.7 | 1.7 | 0.00 | 0.00 | 0.00 | 54 | 1012.5 |
| 20260503192845 | 61 | 243 | 1.7 | 2.6 | 0.00 | 0.00 | 0.00 | 54 | 1012.9 |
| 20260503192344 | 61 | 182 | 7.0 | 8.7 | 0.00 | 0.00 | 0.00 | 54 | 1012.5 |
| 20260503191845 | 61 | 349 | 2.6 | 5.2 | 0.00 | 0.00 | 0.00 | 53 | 1012.9 |
| 20260503191344 | 61 | 237 | 3.5 | 5.2 | 0.00 | 0.00 | 0.00 | 53 | 1012.5 |
| 20260503190844 | 61 | 230 | 1.7 | 2.6 | 0.00 | 0.00 | 0.00 | 54 | 1012.5 |
| 20260503190345 | 61 | 293 | 3.5 | 5.2 | 0.00 | 0.00 | 0.00 | 54 | 1012.5 |
| 20260503185844 | 60 | 249 | 0.9 | 0.9 | 0.00 | 0.00 | 0.00 | 55 | 1012.2 |
| 20260503185345 | 60 | 230 | 1.7 | 2.6 | 0.00 | 0.00 | 0.00 | 55 | 1012.5 |
| 20260503184844 | 61 | 278 | 7.8 | 12.2 | 0.00 | 0.00 | 0.00 | 55 | 1012.5 |
| 20260503184344 | 61 | 281 | 1.7 | 1.7 | 0.00 | 0.00 | 0.00 | 54 | 1012.5 |
| 20260503183845 | 61 | 326 | 5.2 | 8.7 | 0.00 | 0.00 | 0.00 | 54 | 1012.5 |
| 20260503183346 | 62 | 324 | 7.0 | 12.2 | 0.00 | 0.00 | 0.00 | 55 | 1012.5 |
| 20260503182844 | 62 | 262 | 2.6 | 7.8 | 0.00 | 0.00 | 0.00 | 54 | 1012.2 |
| 20260503182344 | 62 | 246 | 4.3 | 6.1 | 0.00 | 0.00 | 0.00 | 53 | 1011.9 |
| 20260503181844 | 62 | 269 | 3.5 | 4.3 | 0.00 | 0.00 | 0.00 | 53 | 1011.5 |
| 20260503181344 | 62 | 286 | 3.5 | 4.3 | 0.00 | 0.00 | 0.00 | 55 | 1011.9 |
| 20260503180844 | 62 | 192 | 2.6 | 4.3 | 0.00 | 0.00 | 0.00 | 57 | 1011.9 |
| 20260503180344 | 63 | 22 | 1.7 | 1.7 | 0.00 | 0.00 | 0.00 | 56 | 1011.9 |
| 20260503175844 | 64 | 245 | 1.7 | 2.6 | 0.00 | 0.00 | 0.00 | 54 | 1011.5 |
| 20260503175345 | 64 | 283 | 1.7 | 2.6 | 0.00 | 0.00 | 0.00 | 51 | 1011.2 |
| 20260503174845 | 64 | 155 | 0.9 | 0.9 | 0.00 | 0.00 | 0.00 | 51 | 1011.2 |
| 20260503174344 | 64 | 285 | 0.9 | 1.7 | 0.00 | 0.00 | 0.00 | 51 | 1011.2 |
| 20260503173844 | 64 | 248 | 0.9 | 0.9 | 0.00 | 0.00 | 0.00 | 51 | 1011.2 |
| 20260503173345 | 63 | 184 | 0.9 | 0.9 | 0.00 | 0.00 | 0.00 | 52 | 1011.2 |
| 20260503172844 | 63 | 244 | 1.7 | 2.6 | 0.00 | 0.00 | 0.00 | 52 | 1011.2 |
| 20260503172346 | 63 | 295 | 1.7 | 1.7 | 0.00 | 0.00 | 0.00 | 52 | 1011.2 |
| 20260503171844 | 63 | 261 | 0.9 | 1.7 | 0.00 | 0.00 | 0.00 | 52 | 1011.2 |
| 20260503171344 | 63 | 226 | 1.7 | 1.7 | 0.00 | 0.00 | 0.00 | 52 | 1011.2 |
| 20260503170844 | 63 | 279 | 2.6 | 2.6 | 0.00 | 0.00 | 0.00 | 52 | 1011.2 |
| 20260503170345 | 63 | 249 | 3.5 | 7.0 | 0.00 | 0.00 | 0.00 | 52 | 1011.2 |
| 20260503150844 | 68 | 316 | 6.1 | 7.8 | 0.00 | 0.00 | 0.00 | 46 | 1009.1 |
| 20260503150345 | 68 | 292 | 3.5 | 4.3 | 0.00 | 0.00 | 0.00 | 45 | 1009.5 |
| 20260503131345 | 73 | 267 | 2.6 | 2.6 | 0.00 | 0.00 | 0.00 | 42 | 1008.5 |
| 20260503130844 | 73 | 249 | 5.2 | 8.7 | 0.00 | 0.00 | 0.00 | 40 | 1008.8 |
| 20260503130344 | 74 | 256 | 7.0 | 13.9 | 0.00 | 0.00 | 0.00 | 39 | 1008.8 |